CW8164 Weather Reports


Display with metric or nautical units.
time (UTC)temp
F
wind
direction
speed
MPH
gust
MPH
rain 1hr
in
rain 24hr
in
rain mn
in
humidity
%
barometer
mb
20260503195402 83 218 2.0 5.0 0.00 0.00 0.00 46 1010.1
20260503194903 83 221 1.0 5.0 0.00 0.00 0.00 47 1010.1
20260503194403 83 206 1.0 5.0 0.00 0.00 0.00 45 1010.1
20260503193903 83 334 1.0 3.0 0.00 0.00 0.00 51 1010.2
20260503193404 82 328 0.0 2.0 0.00 0.00 0.00 50 1010.2
20260503192903 82 263 1.0 2.0 0.00 0.00 0.00 51 1010.2
20260503192403 81 312 0.0 3.0 0.00 0.00 0.00 52 1010.3
20260503191904 81 332 0.0 3.0 0.00 0.00 0.00 53 1010.3
20260503190904 80 286 1.0 3.0 0.00 0.00 0.00 51 1010.5
20260503190403 80 280 1.0 3.0 0.00 0.00 0.00 52 1010.5
20260503185903 79 288 0.0 3.0 0.00 0.00 0.00 53 1010.6
20260503184403 78 343 1.0 3.0 0.00 0.00 0.00 57 1010.8
20260503183403 77 291 0.0 5.0 0.00 0.00 0.00 59 1011.0
20260503182403 76 264 1.0 3.0 0.00 0.00 0.00 59 1011.1
20260503181403 76 296 0.0 3.0 0.00 0.00 0.00 61 1011.2
20260503180904 75 279 0.0 3.0 0.00 0.00 0.00 61 1011.1
20260503175903 74 269 1.0 3.0 0.00 0.00 0.00 61 1011.2
20260503175403 74 183 1.0 2.0 0.00 0.00 0.00 61 1011.3
20260503174903 73 246 0.0 2.0 0.00 0.00 0.00 64 1011.4
20260503174403 73 233 0.0 3.0 0.00 0.00 0.00 64 1011.4
20260503173904 72 255 1.0 3.0 0.00 0.00 0.00 63 1011.4
20260503173403 72 261 1.0 3.0 0.00 0.00 0.00 65 1011.5
20260503172904 72 225 1.0 3.0 0.00 0.00 0.00 63 1011.5
20260503171903 71 248 1.0 3.0 0.00 0.00 0.00 65 1011.5
20260503171403 71 212 1.0 3.0 0.00 0.00 0.00 70 1011.6
20260503170903 71 227 0.0 3.0 0.00 0.00 0.00 68 1011.7
20260503170403 70 242 0.0 2.0 0.00 0.00 0.00 71 1011.7
20260503150903 62 105 0.0 0.0 0.00 0.00 0.00 85 1012.1
20260503150403 61 61 0.0 0.0 0.00 0.00 0.00 86 1012.2
20260503131403 48 122 0.0 0.0 0.00 0.01 0.00 95 1011.8
20260503130403 47 122 0.0 0.0 0.00 0.01 0.00 94 1011.7
20260503110404 50 81 0.0 0.0 0.00 0.01 0.00 94 1012.1
20260503090403 52 78 0.0 0.0 0.00 0.02 0.00 92 1012.2
20260503081403 54 67 0.0 0.0 0.00 0.03 0.00 92 1012.3
20260503080903 54 67 0.0 0.0 0.00 0.03 0.00 91 1012.3
20260503080404 54 74 0.0 0.0 0.00 0.03 0.00 91 1012.3
20260503072903 55 78 0.0 0.0 0.00 0.03 0.00 90 1012.4
20260503071403 56 80 0.0 0.0 0.00 0.03 0.00 89 1012.4
20260503070904 56 90 0.0 0.0 0.00 0.03 0.00 89 1012.5
20260503070404 57 144 0.0 0.0 0.00 0.03 0.00 89 1012.4
20260503054904 59 43 0.0 0.0 0.00 0.03 0.03 86 1012.1
20260503053903 59 43 0.0 0.0 0.00 0.03 0.03 85 1012.4
20260503052903 59 43 0.0 0.0 0.00 0.03 0.03 85 1012.5
20260503052403 60 43 0.0 0.0 0.00 0.03 0.03 84 1012.5
20260503051904 60 32 0.0 0.0 0.00 0.03 0.03 84 1012.5
20260503051403 60 94 0.0 0.0 0.00 0.03 0.03 84 1012.6
20260503050903 60 143 0.0 0.0 0.00 0.03 0.03 84 1012.6
20260503050403 60 85 0.0 0.0 0.00 0.03 0.03 84 1012.6
20260503045404 61 38 0.0 0.0 0.00 0.03 0.03 83 1012.7
20260503044904 61 38 0.0 0.0 0.00 0.03 0.03 81 1012.6
20260503043903 62 80 0.0 0.0 0.00 0.03 0.03 80 1012.5
20260503043403 62 80 0.0 0.0 0.00 0.03 0.03 79 1012.6
20260503042903 62 80 0.0 0.0 0.00 0.03 0.03 79 1012.6
20260503042403 63 80 0.0 0.0 0.00 0.03 0.03 78 1012.6
20260503041403 63 80 0.0 0.0 0.00 0.03 0.03 76 1012.5
20260503040903 63 80 0.0 0.0 0.00 0.03 0.03 76 1012.6
20260503035903 64 80 0.0 2.0 0.00 0.03 0.03 75 1012.6
20260503035403 64 126 0.0 0.0 0.00 0.03 0.03 73 1012.5
20260503034903 65 118 0.0 0.0 0.00 0.03 0.03 72 1012.4
20260503033404 66 182 0.0 0.0 0.00 0.03 0.03 71 1012.4
20260503032904 66 231 0.0 0.0 0.00 0.03 0.03 70 1012.3
20260503032403 66 211 0.0 0.0 0.00 0.03 0.03 69 1012.4
20260503031903 67 201 0.0 5.0 0.00 0.03 0.03 68 1012.3
20260503031403 67 226 0.0 6.0 0.00 0.03 0.03 67 1012.3
20260503030903 67 199 1.0 7.0 0.00 0.03 0.03 67 1012.1
20260503030404 68 252 0.0 7.0 0.00 0.03 0.03 67 1012.2
20260503025903 68 295 0.0 2.0 0.00 0.03 0.03 66 1012.0
20260503025403 68 235 0.0 5.0 0.00 0.03 0.03 68 1011.8
20260503024903 69 136 1.0 5.0 0.00 0.03 0.03 67 1011.8
20260503024403 69 162 0.0 5.0 0.00 0.03 0.03 66 1011.7
20260503023904 69 47 0.0 2.0 0.00 0.03 0.03 67 1011.6
20260503023403 69 128 0.0 2.0 0.00 0.03 0.03 66 1011.7
20260503022403 70 145 0.0 2.0 0.00 0.03 0.03 65 1011.3
20260503021903 70 133 0.0 6.0 0.00 0.03 0.03 65 1011.2
20260503021403 70 79 1.0 6.0 0.00 0.03 0.03 64 1011.1
20260503020903 71 115 0.0 2.0 0.00 0.03 0.03 63 1011.1
20260503020404 71 121 0.0 5.0 0.00 0.03 0.03 62 1011.0
20260503015904 72 70 1.0 5.0 0.00 0.03 0.03 61 1010.9
20260503015403 73 113 0.0 3.0 0.00 0.03 0.03 60 1010.8
20260503014904 74 87 2.0 3.0 0.00 0.03 0.03 59 1010.8
20260503014403 75 202 0.0 0.0 0.00 0.03 0.03 60 1010.8
20260503013903 75 205 0.0 0.0 0.00 0.03 0.03 61 1010.7
20260503013403 75 264 0.0 0.0 0.00 0.03 0.03 59 1010.7
20260503012903 75 152 0.0 0.0 0.00 0.03 0.03 60 1010.8
20260503012404 75 24 0.0 0.0 0.00 0.03 0.03 59 1010.7
20260503011903 75 19 0.0 0.0 0.00 0.03 0.03 55 1010.8
20260503011404 75 254 0.0 0.0 0.00 0.03 0.03 58 1010.8
20260503010903 76 241 0.0 0.0 0.00 0.03 0.03 56 1010.8
20260503010403 76 268 0.0 0.0 0.00 0.03 0.03 56 1010.8
20260503005403 75 234 0.0 0.0 0.00 0.03 0.03 59 1010.8
20260503004904 75 221 0.0 0.0 0.00 0.03 0.03 60 1010.9
20260503004404 75 259 0.0 0.0 0.00 0.03 0.03 60 1010.9
20260503003903 75 235 0.0 2.0 0.00 0.03 0.03 58 1010.9
20260503002903 75 219 0.0 2.0 0.00 0.03 0.03 58 1010.9
20260503001903 75 249 0.0 2.0 0.00 0.03 0.03 58 1010.9
20260503001403 75 335 0.0 2.0 0.00 0.03 0.03 58 1010.9
20260503000903 75 276 0.0 2.0 0.00 0.03 0.03 58 1010.9
20260503000403 74 235 0.0 2.0 0.00 0.03 0.03 58 1010.9
20260502235904 74 234 0.0 3.0 0.00 0.03 0.03 58 1011.0
20260502234904 74 201 0.0 3.0 0.00 0.03 0.03 58 1011.0
20260502233903 74 244 0.0 3.0 0.00 0.03 0.03 58 1011.2
20260502233404 74 232 0.0 3.0 0.00 0.03 0.03 58 1011.2
20260502232903 74 283 0.0 2.0 0.00 0.03 0.03 59 1011.3
20260502232404 74 288 0.0 2.0 0.00 0.03 0.03 60 1011.4
20260502231904 73 33 0.0 2.0 0.00 0.03 0.03 60 1011.4
20260502231404 73 265 0.0 2.0 0.00 0.03 0.03 61 1011.4
20260502230903 73 53 0.0 2.0 0.00 0.03 0.03 61 1011.5
20260502230404 73 229 0.0 2.0 0.00 0.03 0.03 60 1011.7
20260502225903 73 281 0.0 3.0 0.00 0.03 0.03 60 1011.8
20260502225403 73 321 1.0 3.0 0.00 0.03 0.03 60 1011.8
20260502224904 73 25 0.0 2.0 0.00 0.03 0.03 60 1012.0
20260502224404 72 307 0.0 2.0 0.00 0.03 0.03 60 1012.0
20260502223403 71 31 0.0 2.0 0.00 0.03 0.03 62 1012.2
20260502222903 71 230 0.0 3.0 0.00 0.03 0.03 67 1012.3
20260502222403 71 21 0.0 3.0 0.00 0.03 0.03 64 1012.4
20260502221403 70 240 0.0 2.0 0.00 0.03 0.03 62 1012.5
20260502220903 70 340 0.0 3.0 0.00 0.03 0.03 62 1012.7
20260502220403 70 257 0.0 5.0 0.00 0.03 0.03 63 1012.7
20260502215905 70 260 0.0 5.0 0.00 0.03 0.03 63 1012.7
20260502215404 70 274 0.0 3.0 0.00 0.03 0.03 65 1012.8
20260502214903 69 36 0.0 3.0 0.00 0.03 0.03 63 1012.8
20260502213903 69 175 0.0 5.0 0.00 0.03 0.03 70 1012.9
20260502213404 68 27 1.0 5.0 0.00 0.03 0.03 66 1013.0
20260502212903 67 196 0.0 5.0 0.00 0.03 0.03 66 1013.1
20260502212403 67 255 1.0 5.0 0.00 0.03 0.03 65 1013.2
20260502211904 67 133 1.0 5.0 0.00 0.03 0.03 67 1013.4
20260502211403 67 198 0.0 2.0 0.00 0.03 0.03 67 1013.4
20260502210903 67 266 0.0 6.0 0.00 0.03 0.03 69 1013.6
20260502210403 66 356 1.0 6.0 0.00 0.03 0.03 68 1013.6
20260502205905 66 32 2.0 6.0 0.00 0.03 0.03 68 1013.7
20260502205404 66 292 1.0 6.0 0.00 0.03 0.03 67 1013.8
20260502204903 65 215 0.0 2.0 0.00 0.03 0.03 73 1013.8
20260502204403 65 217 0.0 2.0 0.00 0.03 0.03 69 1013.8
20260502203403 65 109 0.0 3.0 0.00 0.03 0.03 69 1013.9
20260502202904 65 268 0.0 3.0 0.00 0.03 0.03 69 1014.1
20260502202403 65 287 0.0 2.0 0.00 0.03 0.03 70 1014.1
20260502201904 64 59 0.0 2.0 0.00 0.03 0.03 70 1014.0
20260502201403 64 166 0.0 2.0 0.00 0.03 0.03 70 1014.1
20260502200904 64 224 0.0 3.0 0.00 0.03 0.03 72 1014.1
20260502200403 64 289 1.0 5.0 0.00 0.03 0.03 68 1014.2
20260502195904 64 103 0.0 6.0 0.00 0.03 0.03 73 1014.2